Regional Weather Roundup
Issued by NWS

Home | Current Version | Previous Version | Text Only | Print | Product List | Glossary On
Versions: 1 2 3 4 5 6 7 8 9 10 11 12 13 14 15 16 17 18 19 20 21 22 23 24 25 26 27 28 29 30 31 32 33 34 35 36 37 38 39 40 41 42 43 44 45 46 47 48 49 50
000
ASUS43 KMPX 260101
RWRMN
WEATHER ROUNDUP FOR MINNESOTA
NATIONAL WEATHER SERVICE TWIN CITIES/CHANHASSEN MN
800 PM CDT TUE JUL 25 2017


NOTE: "FAIR" INDICATES FEW OR NO CLOUDS BELOW 12,000 FEET WITH NO
SIGNIFICANT WEATHER AND/OR OBSTRUCTIONS TO VISIBILITY. N/A MEANS
CURRENT SKY AND/OR WEATHER CONDITIONS ARE NOT AVAILABLE.

MNZ060>063-068>070-260200-
   Twin Cities Metro

CITY           SKY/WX    TMP DP  RH WIND       PRES   REMARKS
TWIN CITIES    TSTM      79  74  84 S10       29.96S
ST PAUL        LGT RAIN  77  76  96 S24       29.92F
CRYSTAL        LGT RAIN  76  71  85 S8        29.92S
BLAINE         CLOUDY    79  72  78 S10G20    29.93S
LAKEVILLE      CLOUDY    75  75 100 SE6       29.97F
EDEN PRAIRIE   TSTM      78  75  90 N23       29.95S VSB 3/4
SOUTH ST PAUL  CLOUDY    78  73  85 S6        29.96F
LAKE ELMO      MOCLDY    75  73  94 S22G28    29.92F
$$
MNZ001>005-007-008-013>017-022>024-027-028-260200-
   Northwest Minnesota

CITY           SKY/WX    TMP DP  RH WIND       PRES   REMARKS
BEMIDJI        MOCLDY    75  68  79 SW6       29.91R
HALLOCK        SUNNY     75  61  60 NW12      29.89R
ROSEAU         CLEAR     73  63  68 W9        29.88R
WARROAD        CLEAR     73  63  68 W8G16     29.87R
CROOKSTON      CLEAR     77  59  53 W10       29.89S
FOSSTON        CLOUDY    73  68  83 SW9       29.91R
DETROIT LAKES  PTCLDY    73  68  83 W5        29.95S
MOORHEAD       CLOUDY    79  70  73 CALM      29.92R
PARK RAPIDS    PTCLDY    77  69  76 W10       29.94R
MAHNOMEN       FAIR      75  69  81 SW7       29.92R
$$
MNZ006-009>011-018-025>026-260200-
   North Central Minnesota

CITY           SKY/WX    TMP DP  RH WIND       PRES   REMARKS
BAUDETTE       CLEAR     75  58  55 NW15      29.85R
FLAG ISLAND    PTCLDY    73  57  56 W12       29.84R
INTL FALLS     MOCLDY    73  66  78 VRB7      29.83F
WASKISH        CLEAR     75  70  83 SW8       29.86S
BIG FORK       CLOUDY    72  66  83 SW6       29.90S
LONGVILLE      CLOUDY    73  68  83 S5        29.93R
GRAND RAPIDS   CLOUDY    72  67  84 S6        29.95R
CRANE LAKE     CLOUDY    70  66  88 S5        29.88S
ORR            CLOUDY    72  63  73 SW3       29.87S
COOK             N/A     68  66  94 S3        29.90F
WALKER         CLOUDY    73  68  83 W5        29.93R
$$
MNZ012-019>021-037-260200-
   Northeast Minnesota

CITY           SKY/WX    TMP DP  RH WIND       PRES   REMARKS
DULUTH         CLOUDY    69  65  86 S6        29.94R
ELY            CLOUDY    70  63  78 S6        29.91R
HIBBING        CLOUDY    69  67  93 CALM      29.92R
EVELETH        CLOUDY    70  66  88 SW5       29.93S HAZE
DULUTH HARBOR  CLOUDY    64  63  94 NE3       29.93R
TWO HARBORS    CLOUDY    70  64  83 CALM      29.91R
SILVER BAY     CLOUDY    70  63  78 CALM      29.90
GRAND MARAIS     N/A     65  58  78 CALM      29.89F
G MARAIS ARPRT CLOUDY    64  57  77 S6        29.94S
$$
MNZ029>031-032-039>041-046>048-054>057-064-260200-
   West Central Minnesota

CITY           SKY/WX    TMP DP  RH WIND       PRES   REMARKS
FERGUS FALLS   PTCLDY    77  70  78 NW3       29.92S
WHEATON        MOCLDY    79  70  73 CALM      29.94S
MORRIS         CLOUDY    81  72  74 N6        29.94R
ALEXANDRIA     CLOUDY    77  72  84 NW7       29.97R
ELBOW LAKE     FAIR      77  72  83 CALM      29.95R
WADENA         CLOUDY    75  70  83 CALM      29.94R
GLENWOOD       LGT RAIN  79  75  89 NW7       29.95R
APPLETON       LGT RAIN  77  68  73 W12       29.95R
BENSON         CLOUDY    79  68  69 N10G16    29.98R
ORTONVILLE     CLOUDY    77  70  78 MISG      29.96R
MADISON        LGT RAIN  75  70  83 S13G22    29.95R
WILLMAR        LGT RAIN  79  68  69 SW8       29.95R
$$
MNZ033>034-036-042>043-049>051-058-059-260200-
   Central Minnesota

CITY           SKY/WX    TMP DP  RH WIND       PRES   REMARKS
ST CLOUD       CLOUDY    77  67  71 S13       29.90
SAUK CENTRE    CLOUDY    79  74  83 NW7       29.94R
PAYNESVILLE    CLOUDY    78  71  77 S9        29.94R
AITKIN         CLOUDY    73  70  88 CALM      29.93R
PINE RIVER     PTCLDY    75  70  83 CALM      29.97R
BRAINERD       CLOUDY    76  70  82 SW3       29.94R
STAPLES        CLOUDY    77  70  78 CALM      29.94R
LONG PRAIRIE   CLOUDY    77  72  83 W3        29.96R
LITTLE FALLS   CLOUDY    77  70  78 CALM      29.94R
LITCHFIELD     CLOUDY    81  72  74 S6        29.95R
BUFFALO        CLOUDY    75  69  84 S6        29.94R
MAPLE LAKE     CLOUDY    76  70  82 S7        29.93S
HUTCHINSON     TSTM      71  69  91 S13G29    29.98R
$$
MNZ037-044-045-052-053-260200-
   East Central Minnesota

CITY           SKY/WX    TMP DP  RH WIND       PRES   REMARKS
PRINCETON      CLOUDY    81  72  74 S8        29.90F
MORA           CLOUDY    75  68  78 S3        29.94R
CAMBRIDGE      CLOUDY    81  68  65 S10       29.88F
RUSH CITY      CLOUDY    77  69  77 S9        29.92R HAZE
MOOSE LAKE     CLOUDY    73  68  83 SW3       29.92R
HINCKLEY       CLOUDY    77  72  83 S6        29.94R
CLOQUET        CLOUDY    72  66  83 CALM      29.94R
MCGREGOR       CLOUDY    73  68  83 CALM      29.95R
$$
MNZ071>073-080-081-089-090-097-098-260200-
   Southwest Minnesota

CITY           SKY/WX    TMP DP  RH WIND       PRES   REMARKS
MONTEVIDEO     LGT RAIN  77  68  73 NW5       29.96R
GRANITE FALLS  CLOUDY    75  70  85 SW12      29.97R
CANBY          CLOUDY    74  69  83 CALM      29.95F
REDWOOD FALLS  LGT RAIN  76  73  91 NE8       29.91F FOG
OLIVIA         CLOUDY    77  73  88 S7        29.94R
PIPESTONE      TSTM      75  70  83 NE12G20   29.99R
WINDOM         CLOUDY    81  72  74 N6        29.98R
WORTHINGTON    CLOUDY    79  73  82 E3        29.97R
JACKSON        CLOUDY    81  70  69 CALM      29.98R
TRACY          CLOUDY    74  69  86 S3        29.97R THUNDER
SLAYTON        HVY RAIN  75  58  54 NE7       29.98R
$$
MNZ065>067-074>077-082>085-091>093-260200-
   South Central Minnesota

CITY           SKY/WX    TMP DP  RH WIND       PRES   REMARKS
MANKATO        LGT RAIN  80  74  81 S3        29.99R
NEW ULM        LGT RAIN  81  73  78 SW8       29.96R
ST JAMES         N/A     79  73  83 CALM      29.98R
FAIRMONT       CLOUDY    79  74  84 E5        29.98R
GLENCOE        TSTM      75  75 100 W6        29.99R
FARIBAULT      LGT RAIN  79  72  78 E3        30.00R
OWATONNA       LGT RAIN  79  72  78 S9        29.99R
WASECA         LGT RAIN  77  70  78 S7        30.00R
ALBERT LEA     CLOUDY    81  72  74 S10       30.00R
$$
MNZ078>079-086>088-094>096-260200-
   Southeast Minnesota

CITY           SKY/WX    TMP DP  RH WIND       PRES   REMARKS
ROCHESTER      CLOUDY    75  70  84 S12       30.02R
RED WING       CLOUDY    77  70  78 CALM      29.99R
STANTON        CLOUDY    77  72  84 SE5       29.98S
DODGE CENTER   CLOUDY    75  70  83 S8        30.01S
WINONA         CLOUDY    77  66  69 CALM      30.02R
AUSTIN         CLOUDY    77  70  78 S8        30.01S
PRESTON        CLOUDY    74  67  77 S9        30.04R
$$
ABBREVIATIONS USED IN REMARKS
   TC - TEMPERATURES IN CELSIUS
  WCI - WIND CHILL INDEX
   HX - HEAT INDEX
  VSB - VISIBILITY
$$




USA.gov is the U.S. government's official web portal to all federal, state and local government web resources and services.